VKG628 ESSA-GVAC

Flight info

Callsign VKG628
Flight time 7h 27m
Altitude 30000
Route PETEV N872 ELPAX DCT PELOX DCT ROKAM DCT ALS Z703 KESUR DCT PARYD DCT SISGA DCT KOVIN DCT NIDUV DCT KIHVI UN872 ERIGA DCT FUJTI DCT BAKUP DCT BATAX DCT ABRAT DCT GAIOS DCT BAROK UN873 SAMAR DCT GDV DCT BIPET N857 GUNET UW11 PINPO PINPO1F
Aircraft A339/H-SADE1E2E3GHIJ3J5M1P2RWXY/LB2D1

Departure

Time 2026-04-23 14:05
Airport Stockholm-Arlanda Airport (ESSA)

Arrival

Time 2026-04-23 21:32
Airport Amílcar Cabral International Airport (GVAC)
Time Latitude Longitude Altitude Speed Heading
2026-04-23 13:50 59.65509 17.93745 131 ft 0 kts 256°
2026-04-23 13:56 59.65509 17.93749 131 ft 1 kts 256°
2026-04-23 13:56 59.65513 17.93777 131 ft 2 kts 256°
2026-04-23 13:56 59.65516 17.93806 132 ft 2 kts 256°
2026-04-23 13:56 59.65519 17.93835 132 ft 2 kts 278°
2026-04-23 13:57 59.65514 17.93864 132 ft 2 kts 298°
2026-04-23 13:57 59.65506 17.93887 132 ft 2 kts 318°
2026-04-23 13:57 59.65494 17.93903 132 ft 2 kts 338°
2026-04-23 13:57 59.65486 17.93908 133 ft 1 kts 347°
2026-04-23 13:58 59.65484 17.93909 133 ft 0 kts 347°
2026-04-23 14:01 59.65505 17.93899 132 ft 6 kts 346°
2026-04-23 14:02 59.65567 17.93867 131 ft 12 kts 345°
2026-04-23 14:02 59.65653 17.93818 129 ft 11 kts 327°
2026-04-23 14:02 59.65667 17.93689 129 ft 10 kts 259°
2026-04-23 14:02 59.65650 17.93528 126 ft 12 kts 271°
2026-04-23 14:03 59.65701 17.93465 126 ft 8 kts 26°
2026-04-23 14:03 59.65710 17.93475 127 ft 1 kts 32°
2026-04-23 14:03 59.65731 17.93507 127 ft 5 kts 40°
2026-04-23 14:03 59.65766 17.93574 129 ft 8 kts 45°
2026-04-23 14:04 59.65818 17.93681 129 ft 11 kts 46°
2026-04-23 14:04 59.65868 17.93814 129 ft 12 kts 68°
2026-04-23 14:04 59.65908 17.94116 133 ft 50 kts 75°
2026-04-23 14:04 59.66050 17.95246 147 ft 116 kts 75°
2026-04-23 14:05 59.66302 17.97194 148 ft 172 kts 77°
2026-04-23 14:05 59.66575 17.99599 611 ft 182 kts 74°
2026-04-23 14:05 59.66851 18.01949 1395 ft 173 kts 71°
2026-04-23 14:05 59.67153 18.04167 2083 ft 164 kts 57°
2026-04-23 14:06 59.67924 18.05622 2368 ft 159 kts 12°
2026-04-23 14:06 59.69044 18.05950 2642 ft 169 kts
2026-04-23 14:06 59.70208 18.05491 2901 ft 182 kts 327°
2026-04-23 14:06 59.71019 18.03448 3159 ft 204 kts 290°
2026-04-23 14:07 59.71080 18.00520 3443 ft 230 kts 264°
2026-04-23 14:07 59.70140 17.93934 4175 ft 262 kts 258°
2026-04-23 14:07 59.69585 17.90534 4837 ft 263 kts 258°
2026-04-23 14:08 59.69014 17.87099 5515 ft 264 kts 258°
2026-04-23 14:08 59.68438 17.83683 6164 ft 265 kts 258°
2026-04-23 14:08 59.67845 17.80223 6790 ft 267 kts 258°
2026-04-23 14:08 59.67233 17.76792 7348 ft 272 kts 253°
2026-04-23 14:09 59.66080 17.73675 7844 ft 291 kts 228°
2026-04-23 14:09 59.64491 17.71148 8391 ft 298 kts 223°
2026-04-23 14:09 59.62839 17.68729 8926 ft 302 kts 223°
2026-04-23 14:09 59.61150 17.66198 9470 ft 305 kts 224°
2026-04-23 14:10 59.59485 17.63623 9977 ft 309 kts 225°
2026-04-23 14:10 59.57791 17.60940 10403 ft 316 kts 226°
2026-04-23 14:10 59.56066 17.58153 10660 ft 330 kts 226°
2026-04-23 14:10 59.54259 17.55215 10913 ft 344 kts 225°
2026-04-23 14:11 59.52388 17.52172 11167 ft 358 kts 225°
2026-04-23 14:11 59.50438 17.49004 11450 ft 371 kts 225°
2026-04-23 14:11 59.48448 17.45782 11926 ft 376 kts 225°
2026-04-23 14:11 59.46409 17.42493 12522 ft 379 kts 225°
2026-04-23 14:12 59.44375 17.39207 13096 ft 382 kts 225°
2026-04-23 14:12 59.42343 17.35931 13607 ft 386 kts 225°
2026-04-23 14:12 59.40269 17.32586 14130 ft 389 kts 225°
2026-04-23 14:12 59.38171 17.29211 14656 ft 393 kts 225°
2026-04-23 14:13 59.36047 17.25794 15153 ft 397 kts 225°
2026-04-23 14:13 59.33907 17.22357 15651 ft 401 kts 225°
2026-04-23 14:13 59.31729 17.18871 16143 ft 405 kts 225°
2026-04-23 14:13 59.29573 17.15419 16640 ft 409 kts 225°
2026-04-23 14:14 59.27347 17.11862 17137 ft 412 kts 225°
2026-04-23 14:14 59.25138 17.08342 17616 ft 416 kts 225°
2026-04-23 14:14 59.22890 17.04766 18123 ft 419 kts 225°
2026-04-23 14:14 59.20642 17.01191 18583 ft 423 kts 226°
2026-04-23 14:15 59.18383 16.97544 19077 ft 426 kts 226°
2026-04-23 14:15 59.16112 16.93844 19567 ft 429 kts 226°
2026-04-23 14:15 59.13819 16.90110 20052 ft 432 kts 226°
2026-04-23 14:15 59.11518 16.86361 20490 ft 436 kts 226°
2026-04-23 14:16 59.09195 16.82592 20920 ft 439 kts 226°
2026-04-23 14:16 59.06847 16.78788 21325 ft 443 kts 226°
2026-04-23 14:16 59.04456 16.74930 21734 ft 447 kts 226°
2026-04-23 14:16 59.02062 16.71078 22180 ft 449 kts 226°
2026-04-23 14:17 58.99674 16.67238 22616 ft 451 kts 226°
2026-04-23 14:17 58.97278 16.63395 23221 ft 449 kts 226°
2026-04-23 14:17 58.94897 16.59584 23737 ft 448 kts 226°
2026-04-23 14:17 58.92491 16.55742 24154 ft 450 kts 226°
2026-04-23 14:18 58.90091 16.51916 24582 ft 451 kts 226°
2026-04-23 14:18 58.87674 16.48069 24975 ft 453 kts 227°
2026-04-23 14:18 58.85242 16.44205 25362 ft 454 kts 227°
2026-04-23 14:18 58.82808 16.40344 25723 ft 456 kts 227°
2026-04-23 14:19 58.80362 16.36467 26080 ft 457 kts 227°
2026-04-23 14:19 58.77900 16.32573 26421 ft 459 kts 226°
2026-04-23 14:19 58.75431 16.28678 26738 ft 462 kts 226°
2026-04-23 14:19 58.72955 16.24781 27062 ft 464 kts 226°
2026-04-23 14:20 58.70452 16.20853 27380 ft 465 kts 226°
2026-04-23 14:20 58.67976 16.16976 27701 ft 467 kts 226°
2026-04-23 14:20 58.65434 16.13004 28016 ft 469 kts 226°
2026-04-23 14:20 58.62904 16.09054 28339 ft 470 kts 226°
2026-04-23 14:21 58.60400 16.05150 28669 ft 471 kts 226°
2026-04-23 14:21 58.57871 16.01215 28984 ft 472 kts 226°
2026-04-23 14:21 58.55304 15.97226 29244 ft 474 kts 226°
2026-04-23 14:21 58.52752 15.93268 29535 ft 476 kts 226°
2026-04-23 14:22 58.50181 15.89288 29805 ft 478 kts 226°
2026-04-23 14:22 58.47616 15.85328 30103 ft 479 kts 226°
2026-04-23 14:22 58.45023 15.81326 30392 ft 480 kts 226°
2026-04-23 14:22 58.42454 15.77373 30646 ft 481 kts 226°
2026-04-23 14:23 58.39831 15.73347 30901 ft 483 kts 226°
2026-04-23 14:23 58.37245 15.69384 31121 ft 485 kts 226°
2026-04-23 14:23 58.34593 15.65334 31377 ft 486 kts 226°
2026-04-23 14:23 58.31975 15.61338 31623 ft 488 kts 226°
2026-04-23 14:24 58.29344 15.57334 31831 ft 490 kts 226°
2026-04-23 14:24 58.26694 15.53307 32040 ft 491 kts 226°
2026-04-23 14:24 58.21376 15.45244 32064 ft 490 kts 226°
2026-04-23 14:25 58.16068 15.37223 32066 ft 489 kts 226°
2026-04-23 14:25 58.10776 15.29223 32067 ft 488 kts 226°
2026-04-23 14:26 58.05839 15.20674 32069 ft 482 kts 231°
2026-04-23 14:26 58.01045 15.11899 32067 ft 483 kts 231°
2026-04-23 14:27 57.96231 15.03135 32067 ft 482 kts 231°
2026-04-23 14:27 57.91422 14.94413 32068 ft 484 kts 231°
2026-04-23 14:28 57.86592 14.85694 32069 ft 482 kts 231°
2026-04-23 14:28 57.81762 14.77007 32075 ft 481 kts 231°
2026-04-23 14:29 57.76969 14.68420 32080 ft 480 kts 231°
2026-04-23 14:29 57.72134 14.59792 32085 ft 480 kts 231°
2026-04-23 14:30 57.67337 14.51259 32088 ft 479 kts 230°
2026-04-23 14:30 57.62537 14.42757 32089 ft 479 kts 230°
2026-04-23 14:31 57.57702 14.34222 32093 ft 480 kts 229°
2026-04-23 14:31 57.52877 14.25741 32095 ft 480 kts 229°
2026-04-23 14:32 57.48032 14.17260 32098 ft 478 kts 229°
2026-04-23 14:32 57.43187 14.08810 32097 ft 478 kts 229°
2026-04-23 14:33 57.38373 14.00441 32100 ft 478 kts 229°
2026-04-23 14:33 57.33527 13.92052 32099 ft 478 kts 229°
2026-04-23 14:34 57.28676 13.83682 32100 ft 479 kts 229°
2026-04-23 14:34 57.23840 13.75373 32103 ft 478 kts 229°
2026-04-23 14:35 57.18964 13.67027 32110 ft 477 kts 229°
2026-04-23 14:35 57.14140 13.58789 32104 ft 477 kts 229°
2026-04-23 14:36 57.09263 13.50497 32112 ft 477 kts 228°
2026-04-23 14:36 57.04448 13.42258 32118 ft 477 kts 229°
2026-04-23 14:37 56.99659 13.33887 32123 ft 476 kts 229°
2026-04-23 14:37 56.94871 13.25537 32120 ft 477 kts 228°
2026-04-23 14:38 56.90087 13.17241 32119 ft 477 kts 228°
2026-04-23 14:38 56.85284 13.08947 32124 ft 477 kts 228°
2026-04-23 14:39 56.80479 13.00678 32125 ft 477 kts 228°
2026-04-23 14:39 56.75666 12.92429 32134 ft 477 kts 228°
2026-04-23 14:40 56.70846 12.84199 32140 ft 477 kts 228°
2026-04-23 14:40 56.66027 12.75999 32142 ft 477 kts 227°
2026-04-23 14:41 56.61175 12.67773 32144 ft 477 kts 227°
2026-04-23 14:41 56.56350 12.59625 32146 ft 476 kts 227°
2026-04-23 14:42 56.51534 12.51520 32152 ft 477 kts 227°
2026-04-23 14:42 56.46668 12.43357 32155 ft 477 kts 227°
2026-04-23 14:43 56.41825 12.35264 32160 ft 476 kts 227°
2026-04-23 14:43 56.36978 12.27188 32172 ft 477 kts 226°
2026-04-23 14:44 56.32132 12.19153 32173 ft 476 kts 226°
2026-04-23 14:44 56.27231 12.11144 32178 ft 477 kts 225°
2026-04-23 14:45 56.22300 12.03166 32179 ft 477 kts 225°
2026-04-23 14:45 56.17400 11.95253 32185 ft 477 kts 225°
2026-04-23 14:46 56.12453 11.87287 32189 ft 478 kts 225°
2026-04-23 14:46 56.07539 11.79399 32191 ft 478 kts 225°
2026-04-23 14:47 56.02611 11.71515 32191 ft 476 kts 225°
2026-04-23 14:47 55.97682 11.63658 32193 ft 476 kts 225°
2026-04-23 14:48 55.92774 11.55859 32194 ft 475 kts 225°
2026-04-23 14:48 55.87861 11.48081 32193 ft 475 kts 225°
2026-04-23 14:49 55.82916 11.40282 32195 ft 476 kts 225°
2026-04-23 14:49 55.77982 11.32526 32196 ft 476 kts 224°
2026-04-23 14:50 55.73050 11.24799 32198 ft 475 kts 224°
2026-04-23 14:50 55.68095 11.17070 32196 ft 475 kts 224°
2026-04-23 14:51 55.63146 11.09373 32198 ft 476 kts 224°
2026-04-23 14:51 55.58181 11.01679 32200 ft 476 kts 224°
2026-04-23 14:52 55.53219 10.94012 32203 ft 476 kts 224°
2026-04-23 14:52 55.48241 10.86350 32196 ft 476 kts 223°
2026-04-23 14:53 55.43293 10.78757 32190 ft 476 kts 223°
2026-04-23 14:53 55.38301 10.71129 32186 ft 476 kts 223°
2026-04-23 14:54 55.33328 10.63555 32183 ft 476 kts 223°
2026-04-23 14:54 55.28324 10.55961 32184 ft 476 kts 223°
2026-04-23 14:55 55.23336 10.48415 32183 ft 476 kts 223°
2026-04-23 14:55 55.18472 10.40673 32185 ft 475 kts 226°
2026-04-23 14:56 55.13710 10.32694 32187 ft 475 kts 225°
2026-04-23 14:56 55.08940 10.24748 32190 ft 475 kts 225°
2026-04-23 14:57 55.04160 10.16846 32192 ft 476 kts 224°
2026-04-23 14:57 54.99359 10.08952 32196 ft 475 kts 224°
2026-04-23 14:58 54.94585 10.01133 32202 ft 474 kts 224°
2026-04-23 14:58 54.89790 9.93305 32205 ft 474 kts 224°
2026-04-23 14:59 54.84991 9.85498 32206 ft 474 kts 224°
2026-04-23 14:59 54.80177 9.77692 32212 ft 474 kts 224°
2026-04-23 15:00 54.75380 9.69943 32215 ft 474 kts 224°
2026-04-23 15:00 54.70581 9.62219 32221 ft 474 kts 224°
2026-04-23 15:01 54.65759 9.54483 32230 ft 472 kts 224°
2026-04-23 15:01 54.60961 9.46809 32238 ft 472 kts 224°
2026-04-23 15:02 54.56162 9.39160 32246 ft 472 kts 224°
2026-04-23 15:02 54.51372 9.31550 32256 ft 472 kts 223°
2026-04-23 15:03 54.46565 9.23940 32265 ft 471 kts 223°
2026-04-23 15:03 54.41739 9.16327 32270 ft 471 kts 223°
2026-04-23 15:04 54.36951 9.08798 32274 ft 470 kts 223°
2026-04-23 15:04 54.32143 9.01261 32278 ft 470 kts 223°
2026-04-23 15:05 54.27336 8.93751 32283 ft 470 kts 222°
2026-04-23 15:05 54.22520 8.86252 32289 ft 469 kts 222°
2026-04-23 15:06 54.17685 8.78747 32298 ft 469 kts 222°
2026-04-23 15:06 54.12889 8.71331 32298 ft 469 kts 222°
2026-04-23 15:07 54.08052 8.63874 32293 ft 470 kts 222°
2026-04-23 15:07 54.03227 8.56459 32294 ft 470 kts 222°
2026-04-23 15:08 53.98372 8.49021 32299 ft 470 kts 222°
2026-04-23 15:09 53.91136 8.37983 32306 ft 469 kts 221°
2026-04-23 15:09 53.86276 8.30600 32306 ft 468 kts 220°
2026-04-23 15:10 53.82255 8.24509 32310 ft 468 kts 220°
2026-04-23 15:10 53.76623 8.16006 32313 ft 467 kts 220°
2026-04-23 15:11 53.71765 8.08695 32318 ft 468 kts 220°
2026-04-23 15:11 53.66924 8.01435 32321 ft 468 kts 220°
2026-04-23 15:12 53.62064 7.94170 32325 ft 468 kts 220°
2026-04-23 15:12 53.57194 7.86910 32333 ft 468 kts 220°
2026-04-23 15:13 53.52362 7.79732 32343 ft 466 kts 220°
2026-04-23 15:13 53.47507 7.72543 32351 ft 466 kts 220°
2026-04-23 15:14 53.42671 7.65405 32353 ft 465 kts 220°
2026-04-23 15:14 53.37822 7.58270 32356 ft 466 kts 220°
2026-04-23 15:15 53.32973 7.51158 32358 ft 466 kts 220°
2026-04-23 15:15 53.28080 7.44004 32362 ft 466 kts 220°
2026-04-23 15:16 53.23233 7.36942 32362 ft 465 kts 220°
2026-04-23 15:16 53.18359 7.29856 32364 ft 464 kts 219°
2026-04-23 15:17 53.13527 7.22856 32366 ft 464 kts 219°
2026-04-23 15:17 53.08644 7.15806 32368 ft 464 kts 218°
2026-04-23 15:18 53.03804 7.08840 32364 ft 463 kts 218°
2026-04-23 15:18 52.98949 7.01873 32362 ft 463 kts 218°
2026-04-23 15:19 52.94068 6.94893 32361 ft 463 kts 218°
2026-04-23 15:19 52.89216 6.87969 32366 ft 463 kts 218°
2026-04-23 15:20 52.85150 6.82187 32364 ft 462 kts 218°
2026-04-23 15:20 52.79503 6.74177 32368 ft 462 kts 218°
2026-04-23 15:21 52.74629 6.67292 32365 ft 462 kts 218°
2026-04-23 15:21 52.69752 6.60421 32363 ft 462 kts 218°
2026-04-23 15:22 52.64896 6.53598 32364 ft 461 kts 218°
2026-04-23 15:22 52.60003 6.46745 32362 ft 461 kts 218°
2026-04-23 15:23 52.55131 6.39944 32363 ft 460 kts 218°
2026-04-23 15:23 52.50282 6.33193 32362 ft 460 kts 217°
2026-04-23 15:24 52.45390 6.26405 32366 ft 459 kts 217°
2026-04-23 15:24 52.40519 6.19668 32366 ft 459 kts 217°
2026-04-23 15:25 52.35654 6.12958 32368 ft 459 kts 217°
2026-04-23 15:25 52.30781 6.06256 32373 ft 459 kts 217°
2026-04-23 15:26 52.25939 5.99615 32380 ft 459 kts 217°
2026-04-23 15:26 52.21038 5.92913 32384 ft 459 kts 217°
2026-04-23 15:27 52.16176 5.86286 32389 ft 458 kts 217°
2026-04-23 15:27 52.11284 5.79637 32390 ft 458 kts 216°
2026-04-23 15:28 52.06431 5.73061 32388 ft 457 kts 216°
2026-04-23 15:28 52.01528 5.66435 32387 ft 457 kts 216°
2026-04-23 15:29 51.96671 5.59893 32378 ft 458 kts 216°
2026-04-23 15:29 51.91772 5.53314 32370 ft 458 kts 216°
2026-04-23 15:30 51.86888 5.46771 32372 ft 457 kts 216°
2026-04-23 15:30 51.81964 5.40196 32370 ft 457 kts 216°
2026-04-23 15:31 51.77089 5.33703 32371 ft 457 kts 215°
2026-04-23 15:31 51.72187 5.27196 32371 ft 457 kts 215°
2026-04-23 15:32 51.67313 5.20742 32371 ft 456 kts 215°
2026-04-23 15:32 51.62408 5.14267 32374 ft 456 kts 215°
2026-04-23 15:33 51.57532 5.07850 32376 ft 456 kts 215°
2026-04-23 15:33 51.52610 5.01391 32379 ft 455 kts 215°
2026-04-23 15:34 51.47727 4.94999 32380 ft 455 kts 215°
2026-04-23 15:34 51.42849 4.88633 32376 ft 455 kts 215°
2026-04-23 15:35 51.37920 4.82222 32376 ft 456 kts 214°
2026-04-23 15:35 51.33011 4.75851 32375 ft 456 kts 214°
2026-04-23 15:36 51.28121 4.69523 32369 ft 456 kts 214°
2026-04-23 15:36 51.23190 4.63160 32369 ft 455 kts 214°
2026-04-23 15:37 51.18260 4.56819 32371 ft 455 kts 214°
2026-04-23 15:37 51.14184 4.51587 32368 ft 455 kts 214°
2026-04-23 15:38 51.08428 4.44223 32369 ft 455 kts 214°
2026-04-23 15:38 51.03521 4.37963 32365 ft 455 kts 214°
2026-04-23 15:39 50.98597 4.31700 32360 ft 454 kts 213°
2026-04-23 15:39 50.93685 4.25467 32355 ft 455 kts 213°
2026-04-23 15:40 50.88734 4.19203 32350 ft 454 kts 213°
2026-04-23 15:40 50.83834 4.13019 32345 ft 453 kts 213°
2026-04-23 15:41 50.78911 4.06827 32339 ft 453 kts 213°
2026-04-23 15:41 50.73983 4.00643 32337 ft 453 kts 213°
2026-04-23 15:42 50.69072 3.94502 32337 ft 453 kts 213°
2026-04-23 15:42 50.64144 3.88354 32340 ft 453 kts 213°
2026-04-23 15:43 50.59210 3.82214 32342 ft 453 kts 213°
2026-04-23 15:43 50.54268 3.76080 32345 ft 453 kts 213°
2026-04-23 15:44 50.49332 3.69974 32343 ft 454 kts 213°
2026-04-23 15:44 50.44393 3.63876 32341 ft 453 kts 213°
2026-04-23 15:45 50.39446 3.57790 32343 ft 453 kts 213°
2026-04-23 15:45 50.34497 3.51715 32337 ft 453 kts 213°
2026-04-23 15:46 50.29577 3.45693 32334 ft 453 kts 213°
2026-04-23 15:46 50.24615 3.39637 32335 ft 453 kts 213°
2026-04-23 15:47 50.19676 3.33622 32335 ft 453 kts 212°
2026-04-23 15:47 50.14728 3.27614 32331 ft 452 kts 212°
2026-04-23 15:48 50.09759 3.21597 32336 ft 451 kts 212°
2026-04-23 15:48 50.04836 3.15652 32341 ft 451 kts 212°
2026-04-23 15:49 49.99869 3.09668 32339 ft 451 kts 212°
2026-04-23 15:49 49.94917 3.03723 32338 ft 451 kts 212°
2026-04-23 15:50 49.89981 2.97811 32340 ft 450 kts 212°
2026-04-23 15:50 49.85014 2.91876 32334 ft 451 kts 212°
2026-04-23 15:51 49.80081 2.85996 32322 ft 450 kts 212°
2026-04-23 15:51 49.75134 2.80119 32317 ft 450 kts 212°
2026-04-23 15:52 49.70174 2.74239 32310 ft 451 kts 212°
2026-04-23 15:52 49.65204 2.68363 32309 ft 450 kts 212°
2026-04-23 15:53 49.60267 2.62539 32306 ft 450 kts 212°
2026-04-23 15:53 49.55284 2.56680 32304 ft 449 kts 212°
2026-04-23 15:54 49.50350 2.50894 32302 ft 450 kts 212°
2026-04-23 15:54 49.45358 2.45053 32302 ft 450 kts 212°
2026-04-23 15:55 49.40401 2.39266 32299 ft 451 kts 212°
2026-04-23 15:55 49.35413 2.33465 32294 ft 450 kts 212°
2026-04-23 15:56 49.30432 2.27675 32292 ft 450 kts 212°
2026-04-23 15:56 49.25454 2.21905 32290 ft 451 kts 212°
2026-04-23 15:57 49.20457 2.16133 32288 ft 451 kts 212°
2026-04-23 15:57 49.15524 2.10232 32283 ft 454 kts 217°
2026-04-23 15:58 49.11087 2.03332 32282 ft 459 kts 226°
2026-04-23 15:58 49.07360 1.95418 32279 ft 465 kts 235°
2026-04-23 15:59 49.04406 1.86662 32261 ft 470 kts 242°
2026-04-23 15:59 49.01677 1.77552 32262 ft 473 kts 243°
2026-04-23 16:00 48.98959 1.68515 32250 ft 474 kts 243°
2026-04-23 16:00 48.96188 1.59375 32260 ft 475 kts 243°
2026-04-23 16:01 48.93421 1.50313 32258 ft 476 kts 244°
2026-04-23 16:01 48.90624 1.41175 32255 ft 476 kts 246°
2026-04-23 16:02 48.87839 1.32097 32259 ft 474 kts 245°
2026-04-23 16:02 48.85052 1.23046 32259 ft 474 kts 245°
2026-04-23 16:03 48.82277 1.14074 32253 ft 472 kts 246°
2026-04-23 16:03 48.79493 1.05095 32254 ft 470 kts 246°
2026-04-23 16:04 48.76704 0.96148 32259 ft 469 kts 246°
2026-04-23 16:04 48.73780 0.87368 32263 ft 470 kts 242°
2026-04-23 16:05 48.70969 0.80339 32258 ft 471 kts 241°
2026-04-23 16:05 48.66980 0.70517 32253 ft 471 kts 242°
2026-04-23 16:06 48.63554 0.62096 32251 ft 471 kts 242°
2026-04-23 16:06 48.60137 0.53719 32250 ft 469 kts 242°
2026-04-23 16:07 48.56730 0.45388 32245 ft 467 kts 243°
2026-04-23 16:07 48.53332 0.37106 32244 ft 465 kts 243°
2026-04-23 16:08 48.49944 0.28870 32241 ft 463 kts 242°
2026-04-23 16:08 48.46564 0.20675 32241 ft 462 kts 243°
2026-04-23 16:09 48.43168 0.12468 32237 ft 460 kts 243°
2026-04-23 16:09 48.39794 0.04337 32235 ft 459 kts 243°
2026-04-23 16:10 48.36398 -0.03720 32233 ft 459 kts 241°
2026-04-23 16:10 48.32631 -0.11494 32229 ft 460 kts 238°
2026-04-23 16:11 48.28843 -0.19149 32230 ft 460 kts 238°
2026-04-23 16:11 48.25033 -0.26801 32231 ft 460 kts 238°
2026-04-23 16:12 48.21150 -0.34408 32226 ft 459 kts 237°
2026-04-23 16:12 48.17297 -0.41923 32222 ft 459 kts 237°
2026-04-23 16:13 48.13410 -0.49497 32215 ft 459 kts 237°
2026-04-23 16:13 48.07594 -0.60803 32211 ft 458 kts 237°
2026-04-23 16:14 48.03730 -0.68288 32210 ft 457 kts 236°
2026-04-23 16:14 47.99841 -0.75806 32206 ft 457 kts 236°
2026-04-23 16:15 47.95951 -0.83301 32202 ft 457 kts 236°
2026-04-23 16:15 47.92088 -0.90726 32199 ft 457 kts 236°
2026-04-23 16:16 47.88198 -0.98180 32194 ft 457 kts 236°
2026-04-23 16:16 47.84302 -1.05628 32188 ft 457 kts 236°
2026-04-23 16:17 47.80403 -1.13058 32187 ft 457 kts 236°
2026-04-23 16:17 47.76504 -1.20470 32186 ft 456 kts 236°
2026-04-23 16:18 47.72608 -1.27862 32179 ft 455 kts 236°
2026-04-23 16:18 47.68710 -1.35233 32178 ft 455 kts 236°
2026-04-23 16:19 47.64819 -1.42576 32174 ft 454 kts 235°
2026-04-23 16:19 47.60916 -1.49914 32171 ft 455 kts 234°
2026-04-23 16:20 47.56749 -1.56996 32166 ft 457 kts 232°
2026-04-23 16:20 47.52517 -1.63968 32160 ft 456 kts 231°
2026-04-23 16:21 47.48289 -1.70922 32162 ft 456 kts 231°
2026-04-23 16:21 47.44047 -1.77880 32161 ft 455 kts 231°
2026-04-23 16:22 47.39812 -1.84771 32155 ft 455 kts 229°
2026-04-23 16:22 47.35257 -1.91158 32140 ft 457 kts 223°
2026-04-23 16:23 47.30228 -1.96838 32138 ft 459 kts 217°
2026-04-23 16:23 47.24820 -2.01809 32134 ft 459 kts 214°
2026-04-23 16:24 47.19370 -2.06676 32127 ft 458 kts 214°
2026-04-23 16:24 47.13927 -2.11530 32124 ft 458 kts 214°
2026-04-23 16:25 47.08480 -2.16376 32121 ft 458 kts 214°
2026-04-23 16:25 47.03067 -2.21182 32116 ft 458 kts 214°
2026-04-23 16:26 46.97626 -2.26001 32110 ft 457 kts 214°
2026-04-23 16:26 46.92198 -2.30798 32105 ft 456 kts 214°
2026-04-23 16:27 46.86787 -2.35566 32107 ft 456 kts 214°
2026-04-23 16:27 46.81351 -2.40332 32103 ft 455 kts 214°
2026-04-23 16:28 46.75960 -2.45053 32101 ft 455 kts 214°
2026-04-23 16:28 46.70528 -2.49806 32102 ft 454 kts 214°
2026-04-23 16:29 46.65130 -2.54519 32101 ft 454 kts 214°
2026-04-23 16:29 46.59727 -2.59223 32097 ft 454 kts 214°
2026-04-23 16:30 46.54347 -2.63898 32093 ft 453 kts 213°
2026-04-23 16:30 46.48944 -2.68582 32091 ft 453 kts 213°
2026-04-23 16:31 46.43531 -2.73264 32086 ft 453 kts 213°
2026-04-23 16:31 46.38139 -2.77919 32086 ft 452 kts 213°
2026-04-23 16:32 46.32782 -2.82535 32086 ft 452 kts 213°
2026-04-23 16:32 46.27356 -2.87195 32082 ft 452 kts 213°
2026-04-23 16:33 46.21991 -2.91840 32080 ft 451 kts 213°
2026-04-23 16:33 46.16636 -2.96501 32069 ft 450 kts 213°
2026-04-23 16:34 46.11288 -3.01148 32064 ft 449 kts 213°
2026-04-23 16:34 46.05961 -3.05765 32058 ft 449 kts 213°
2026-04-23 16:35 46.00625 -3.10379 32050 ft 449 kts 213°
2026-04-23 16:35 45.95265 -3.15005 32047 ft 449 kts 213°
2026-04-23 16:36 45.89972 -3.19563 32047 ft 448 kts 213°
2026-04-23 16:36 45.84598 -3.24176 32044 ft 447 kts 213°
2026-04-23 16:37 45.79263 -3.28746 32039 ft 447 kts 213°
2026-04-23 16:37 45.73932 -3.33304 32041 ft 446 kts 213°
2026-04-23 16:38 45.68617 -3.37838 32037 ft 446 kts 213°
2026-04-23 16:38 45.63311 -3.42353 32035 ft 445 kts 213°
2026-04-23 16:39 45.57988 -3.46873 32035 ft 445 kts 213°
2026-04-23 16:39 45.52708 -3.51349 32034 ft 445 kts 213°
2026-04-23 16:40 45.47394 -3.55841 32029 ft 445 kts 213°
2026-04-23 16:40 45.42083 -3.60320 32028 ft 444 kts 213°
2026-04-23 16:41 45.36797 -3.64770 32026 ft 443 kts 213°
2026-04-23 16:41 45.31506 -3.69214 32023 ft 443 kts 212°
2026-04-23 16:42 45.26191 -3.73669 32021 ft 442 kts 212°
2026-04-23 16:42 45.20927 -3.78071 32016 ft 442 kts 212°
2026-04-23 16:43 45.15652 -3.82471 32017 ft 442 kts 212°
2026-04-23 16:43 45.10356 -3.86881 32016 ft 442 kts 212°
2026-04-23 16:44 45.05090 -3.91256 32013 ft 441 kts 212°
2026-04-23 16:44 44.99807 -3.95635 32009 ft 440 kts 212°
2026-04-23 16:45 44.94544 -3.99989 32011 ft 440 kts 212°
2026-04-23 16:45 44.89269 -4.04345 32003 ft 439 kts 212°
2026-04-23 16:46 44.84007 -4.08680 32006 ft 439 kts 212°
2026-04-23 16:46 44.78723 -4.13023 31998 ft 439 kts 212°
2026-04-23 16:47 44.73484 -4.17319 31998 ft 439 kts 211°
2026-04-23 16:47 44.68200 -4.21645 31999 ft 439 kts 211°
2026-04-23 16:48 44.62970 -4.25918 32001 ft 437 kts 211°
2026-04-23 16:48 44.57716 -4.30202 31997 ft 437 kts 211°
2026-04-23 16:49 44.52478 -4.34464 31988 ft 436 kts 211°
2026-04-23 16:49 44.47228 -4.38730 31988 ft 436 kts 211°
2026-04-23 16:50 44.41992 -4.42971 31985 ft 436 kts 211°
2026-04-23 16:50 44.36791 -4.47305 31983 ft 436 kts 212°
2026-04-23 16:51 44.31623 -4.51696 31977 ft 436 kts 212°
2026-04-23 16:51 44.26453 -4.56075 32125 ft 439 kts 212°
2026-04-23 16:52 44.23862 -4.58264 32443 ft 439 kts 212°
2026-04-23 16:52 44.21225 -4.60490 32753 ft 439 kts 212°
2026-04-23 16:52 44.18633 -4.62674 33014 ft 440 kts 212°
2026-04-23 16:52 44.16007 -4.64883 33254 ft 442 kts 212°
2026-04-23 16:53 44.13374 -4.67094 33477 ft 444 kts 211°
2026-04-23 16:53 44.10727 -4.69317 33746 ft 444 kts 211°
2026-04-23 16:53 44.08107 -4.71515 33954 ft 444 kts 211°
2026-04-23 16:53 44.05449 -4.73740 33958 ft 443 kts 211°
2026-04-23 16:54 44.00174 -4.78152 33962 ft 443 kts 211°
2026-04-23 16:54 43.94922 -4.82539 33959 ft 443 kts 211°
2026-04-23 16:55 43.89650 -4.86931 33960 ft 443 kts 211°
2026-04-23 16:55 43.84354 -4.91332 33964 ft 442 kts 210°
2026-04-23 16:56 43.79092 -4.95696 33959 ft 442 kts 211°
2026-04-23 16:56 43.73799 -5.00075 33961 ft 442 kts 210°
2026-04-23 16:57 43.68541 -5.04418 33962 ft 442 kts 210°
2026-04-23 16:57 43.63263 -5.08769 33965 ft 441 kts 210°
2026-04-23 16:58 43.58013 -5.13088 33962 ft 442 kts 210°
2026-04-23 16:58 43.52734 -5.17423 33960 ft 442 kts 210°
2026-04-23 16:59 43.47440 -5.21762 33968 ft 442 kts 210°
2026-04-23 16:59 43.42158 -5.26078 33980 ft 441 kts 210°
2026-04-23 17:00 43.36888 -5.30375 33994 ft 441 kts 210°
2026-04-23 17:00 43.31629 -5.34659 34006 ft 441 kts 210°
2026-04-23 17:01 43.26374 -5.38929 34033 ft 441 kts 210°
2026-04-23 17:01 43.21077 -5.43226 34045 ft 441 kts 210°
2026-04-23 17:02 43.15833 -5.47469 34068 ft 440 kts 210°
2026-04-23 17:02 43.10551 -5.51734 34092 ft 440 kts 210°
2026-04-23 17:03 43.05289 -5.55975 34107 ft 441 kts 210°
2026-04-23 17:03 42.99999 -5.60230 34118 ft 441 kts 210°
2026-04-23 17:04 42.94722 -5.64466 34121 ft 440 kts 210°
2026-04-23 17:04 42.89469 -5.68674 34113 ft 439 kts 209°
2026-04-23 17:05 42.84192 -5.72894 34105 ft 439 kts 209°
2026-04-23 17:05 42.78911 -5.77108 34091 ft 438 kts 209°
2026-04-23 17:06 42.73675 -5.81279 34085 ft 438 kts 208°
2026-04-23 17:06 42.68430 -5.85447 34084 ft 437 kts 208°
2026-04-23 17:07 42.63180 -5.89609 34073 ft 435 kts 208°
2026-04-23 17:07 42.57954 -5.93746 34072 ft 436 kts 208°
2026-04-23 17:08 42.52750 -5.97859 34072 ft 435 kts 209°
2026-04-23 17:08 42.47527 -6.01979 34062 ft 434 kts 208°
2026-04-23 17:09 42.42317 -6.06079 34061 ft 434 kts 208°
2026-04-23 17:09 42.37103 -6.10175 34056 ft 433 kts 208°
2026-04-23 17:10 42.31891 -6.14260 34050 ft 433 kts 208°
2026-04-23 17:10 42.26703 -6.18321 34053 ft 432 kts 208°
2026-04-23 17:11 42.21519 -6.22371 34054 ft 431 kts 208°
2026-04-23 17:11 42.16304 -6.26435 34047 ft 431 kts 208°
2026-04-23 17:12 42.11127 -6.30464 34039 ft 430 kts 208°
2026-04-23 17:12 42.05945 -6.34489 34033 ft 430 kts 208°
2026-04-23 17:13 42.00768 -6.38502 34025 ft 430 kts 208°
2026-04-23 17:13 41.95612 -6.42490 34024 ft 430 kts 208°
2026-04-23 17:14 41.90413 -6.46507 34021 ft 431 kts 208°
2026-04-23 17:14 41.85230 -6.50504 34019 ft 432 kts 208°
2026-04-23 17:15 41.80008 -6.54527 34014 ft 431 kts 208°
2026-04-23 17:15 41.74829 -6.58504 34011 ft 431 kts 208°
2026-04-23 17:16 41.69556 -6.62314 34007 ft 429 kts 204°
2026-04-23 17:16 41.64112 -6.65491 34003 ft 429 kts 201°
2026-04-23 17:17 41.58611 -6.68605 33999 ft 430 kts 201°
2026-04-23 17:17 41.53109 -6.71715 33992 ft 430 kts 201°
2026-04-23 17:18 41.44864 -6.76358 33985 ft 430 kts 201°
2026-04-23 17:19 41.39371 -6.79441 33985 ft 431 kts 201°
2026-04-23 17:19 41.33850 -6.82535 33982 ft 431 kts 201°
2026-04-23 17:20 41.28342 -6.85617 33985 ft 431 kts 201°
2026-04-23 17:21 41.17284 -6.91786 33974 ft 431 kts 201°
2026-04-23 17:21 41.09012 -6.96385 33958 ft 430 kts 201°
2026-04-23 17:22 41.00760 -7.00958 33948 ft 430 kts 201°
2026-04-23 17:23 40.92476 -7.05539 33952 ft 430 kts 201°
2026-04-23 17:24 40.84199 -7.10102 33963 ft 431 kts 201°
2026-04-23 17:24 40.75913 -7.14662 33971 ft 432 kts 201°
2026-04-23 17:25 40.67582 -7.19231 33984 ft 431 kts 201°
2026-04-23 17:26 40.56535 -7.25269 33998 ft 431 kts 201°
2026-04-23 17:27 40.48240 -7.29793 34009 ft 430 kts 201°
2026-04-23 17:27 40.42718 -7.32797 34005 ft 430 kts 201°
2026-04-23 17:28 40.37189 -7.35799 34003 ft 429 kts 201°
2026-04-23 17:28 40.31664 -7.38794 33997 ft 430 kts 201°
2026-04-23 17:29 40.26111 -7.41797 33979 ft 430 kts 201°
2026-04-23 17:30 40.18752 -7.45770 33975 ft 430 kts 201°
2026-04-23 17:30 40.09546 -7.50729 33975 ft 431 kts 201°
2026-04-23 17:31 40.04012 -7.53702 33981 ft 430 kts 201°
2026-04-23 17:31 39.98492 -7.56663 33981 ft 431 kts 201°
2026-04-23 17:32 39.92939 -7.59639 33979 ft 430 kts 201°
2026-04-23 17:32 39.87404 -7.62598 33980 ft 430 kts 201°
2026-04-23 17:33 39.81842 -7.65593 33979 ft 431 kts 201°
2026-04-23 17:33 39.76380 -7.68804 33972 ft 431 kts 202°
2026-04-23 17:34 39.70914 -7.72001 33973 ft 431 kts 202°
2026-04-23 17:35 39.62720 -7.76796 33975 ft 430 kts 202°
2026-04-23 17:35 39.54526 -7.81584 33972 ft 431 kts 202°
2026-04-23 17:36 39.49070 -7.84768 33972 ft 431 kts 202°
2026-04-23 17:36 39.43619 -7.87942 33967 ft 432 kts 202°
2026-04-23 17:37 39.38139 -7.91127 33967 ft 432 kts 202°
2026-04-23 17:38 39.29937 -7.95887 33970 ft 432 kts 202°
2026-04-23 17:38 39.24459 -7.99056 33970 ft 432 kts 202°
2026-04-23 17:39 39.18973 -8.02226 33970 ft 432 kts 202°
2026-04-23 17:39 39.13500 -8.05385 33970 ft 432 kts 202°
2026-04-23 17:40 39.08028 -8.08536 33963 ft 432 kts 202°
2026-04-23 17:40 39.02537 -8.11694 33959 ft 433 kts 202°
2026-04-23 17:41 38.97058 -8.14841 33962 ft 431 kts 202°
2026-04-23 17:41 38.88833 -8.19549 33967 ft 431 kts 202°
2026-04-23 17:42 38.80627 -8.24236 33964 ft 430 kts 202°
2026-04-23 17:43 38.75140 -8.27367 33975 ft 430 kts 202°
2026-04-23 17:43 38.69704 -8.30460 33979 ft 430 kts 202°
2026-04-23 17:44 38.64246 -8.33563 33981 ft 430 kts 202°
2026-04-23 17:44 38.56041 -8.38215 33990 ft 431 kts 202°
2026-04-23 17:45 38.47828 -8.42862 33993 ft 430 kts 202°
2026-04-23 17:46 38.39626 -8.47494 33991 ft 429 kts 202°
2026-04-23 17:46 38.34171 -8.50567 33992 ft 429 kts 202°
2026-04-23 17:47 38.28744 -8.53625 33992 ft 428 kts 203°
2026-04-23 17:48 38.20762 -8.58793 33996 ft 429 kts 205°
2026-04-23 17:48 38.15491 -8.62269 33996 ft 429 kts 205°
2026-04-23 17:49 38.10187 -8.65767 33994 ft 429 kts 205°
2026-04-23 17:49 38.04914 -8.69243 34002 ft 429 kts 205°
2026-04-23 17:50 37.99623 -8.72729 33999 ft 429 kts 205°
2026-04-23 17:50 37.91679 -8.77950 34000 ft 429 kts 205°
2026-04-23 17:51 37.86363 -8.81436 34004 ft 429 kts 205°
2026-04-23 17:52 37.78445 -8.86620 33996 ft 429 kts 205°
2026-04-23 17:52 37.70479 -8.91822 33996 ft 428 kts 205°
2026-04-23 17:53 37.62553 -8.96986 34001 ft 428 kts 205°
2026-04-23 17:54 37.57264 -9.00426 34006 ft 428 kts 205°
2026-04-23 17:54 37.49359 -9.05554 34005 ft 428 kts 205°
2026-04-23 17:55 37.41428 -9.10688 34005 ft 427 kts 205°
2026-04-23 17:56 37.36147 -9.14098 34008 ft 427 kts 205°
2026-04-23 17:56 37.28189 -9.19228 34009 ft 427 kts 205°
2026-04-23 17:57 37.22899 -9.22631 34006 ft 427 kts 205°
2026-04-23 17:58 37.14981 -9.27719 34013 ft 427 kts 205°
2026-04-23 17:58 37.09716 -9.31094 34012 ft 427 kts 205°
2026-04-23 17:59 37.04395 -9.34498 34005 ft 427 kts 205°
2026-04-23 17:59 36.99117 -9.37869 34005 ft 427 kts 205°
2026-04-23 18:00 36.93862 -9.41221 34007 ft 426 kts 205°
2026-04-23 18:00 36.88559 -9.44599 34011 ft 426 kts 205°
2026-04-23 18:01 36.83298 -9.47945 34003 ft 426 kts 205°
2026-04-23 18:01 36.78006 -9.51305 34007 ft 426 kts 205°
2026-04-23 18:02 36.73630 -9.54081 34012 ft 426 kts 205°
2026-04-23 18:02 36.67474 -9.57977 34019 ft 426 kts 206°
2026-04-23 18:03 36.62178 -9.61323 34023 ft 425 kts 206°
2026-04-23 18:03 36.56911 -9.64648 34025 ft 425 kts 206°
2026-04-23 18:04 36.51653 -9.67961 34025 ft 425 kts 205°
2026-04-23 18:04 36.46397 -9.71266 34025 ft 425 kts 205°
2026-04-23 18:05 36.41100 -9.74596 34030 ft 424 kts 205°
2026-04-23 18:05 36.35854 -9.77887 34028 ft 424 kts 205°
2026-04-23 18:06 36.30577 -9.81190 34026 ft 424 kts 206°
2026-04-23 18:06 36.25341 -9.84466 34027 ft 424 kts 205°
2026-04-23 18:07 36.20056 -9.87767 34029 ft 424 kts 205°
2026-04-23 18:07 36.14806 -9.91042 34028 ft 424 kts 205°
2026-04-23 18:08 36.10400 -9.93789 34030 ft 424 kts 205°
2026-04-23 18:08 36.04263 -9.97605 34027 ft 424 kts 205°
2026-04-23 18:09 35.99033 -10.00949 34027 ft 424 kts 208°
2026-04-23 18:09 35.94047 -10.04815 34028 ft 425 kts 213°
2026-04-23 18:10 35.89297 -10.09166 34030 ft 426 kts 215°
2026-04-23 18:10 35.84529 -10.13580 34097 ft 431 kts 215°
2026-04-23 18:10 35.82117 -10.15812 34363 ft 430 kts 215°
2026-04-23 18:11 35.79752 -10.18001 34686 ft 428 kts 215°
2026-04-23 18:11 35.77384 -10.20192 34956 ft 427 kts 216°
2026-04-23 18:11 35.75005 -10.22391 35025 ft 428 kts 216°
2026-04-23 18:12 35.70274 -10.26764 35035 ft 428 kts 216°
2026-04-23 18:12 35.65511 -10.31161 35032 ft 428 kts 216°
2026-04-23 18:13 35.60749 -10.35549 35039 ft 428 kts 216°
2026-04-23 18:13 35.55989 -10.39928 35039 ft 428 kts 216°
2026-04-23 18:14 35.51226 -10.44304 35032 ft 428 kts 216°
2026-04-23 18:14 35.46455 -10.48681 35033 ft 427 kts 216°
2026-04-23 18:15 35.41723 -10.53015 35038 ft 428 kts 216°
2026-04-23 18:15 35.36936 -10.57395 35040 ft 428 kts 216°
2026-04-23 18:16 35.32187 -10.61734 35038 ft 428 kts 216°
2026-04-23 18:16 35.27402 -10.66098 35039 ft 428 kts 216°
2026-04-23 18:17 35.20250 -10.72606 35047 ft 429 kts 216°
2026-04-23 18:17 35.15450 -10.76968 35046 ft 430 kts 216°
2026-04-23 18:18 35.10680 -10.81295 35041 ft 430 kts 216°
2026-04-23 18:18 35.05875 -10.85646 35046 ft 430 kts 216°
2026-04-23 18:19 35.01079 -10.89985 35039 ft 429 kts 216°
2026-04-23 18:19 34.96292 -10.94312 35034 ft 429 kts 216°
2026-04-23 18:20 34.91494 -10.98642 35037 ft 429 kts 216°
2026-04-23 18:20 34.86710 -11.02948 35049 ft 430 kts 216°
2026-04-23 18:21 34.81871 -11.07298 35042 ft 430 kts 217°
2026-04-23 18:21 34.77093 -11.11592 35048 ft 430 kts 216°
2026-04-23 18:22 34.72276 -11.15914 35048 ft 430 kts 217°
2026-04-23 18:22 34.67482 -11.20209 35045 ft 430 kts 217°
2026-04-23 18:23 34.60270 -11.26655 35045 ft 429 kts 217°
2026-04-23 18:24 34.53065 -11.33112 35048 ft 430 kts 218°
2026-04-23 18:25 34.45861 -11.39562 35048 ft 430 kts 218°
2026-04-23 18:25 34.41060 -11.43852 35042 ft 430 kts 218°
2026-04-23 18:26 34.36249 -11.48143 35044 ft 431 kts 218°
2026-04-23 18:26 34.31421 -11.52444 35048 ft 431 kts 218°
2026-04-23 18:27 34.26607 -11.56723 35046 ft 431 kts 218°
2026-04-23 18:27 34.21782 -11.61009 35041 ft 431 kts 218°
2026-04-23 18:28 34.16953 -11.65293 35040 ft 431 kts 218°
2026-04-23 18:28 34.12119 -11.69574 35044 ft 433 kts 218°
2026-04-23 18:29 34.07255 -11.73882 35051 ft 432 kts 218°
2026-04-23 18:29 34.02417 -11.78154 35042 ft 432 kts 219°
2026-04-23 18:30 33.97558 -11.82440 35045 ft 433 kts 219°
2026-04-23 18:30 33.92713 -11.86707 35050 ft 433 kts 219°
2026-04-23 18:31 33.87828 -11.91001 35053 ft 433 kts 219°
2026-04-23 18:31 33.82983 -11.95255 35050 ft 433 kts 219°
2026-04-23 18:32 33.78121 -11.99520 35050 ft 432 kts 219°
2026-04-23 18:32 33.73266 -12.03772 35055 ft 432 kts 219°
2026-04-23 18:33 33.68416 -12.08015 35056 ft 432 kts 219°
2026-04-23 18:33 33.63574 -12.12242 35055 ft 432 kts 220°
2026-04-23 18:34 33.58700 -12.16492 35056 ft 432 kts 220°
2026-04-23 18:34 33.53846 -12.20720 35057 ft 433 kts 220°
2026-04-23 18:35 33.48957 -12.24972 35054 ft 434 kts 220°
2026-04-23 18:35 33.44079 -12.29209 35056 ft 434 kts 220°
2026-04-23 18:36 33.39220 -12.33421 35054 ft 434 kts 220°
2026-04-23 18:36 33.34335 -12.37652 35054 ft 434 kts 220°
2026-04-23 18:37 33.29456 -12.41869 35057 ft 434 kts 221°
2026-04-23 18:37 33.24547 -12.46109 35055 ft 434 kts 221°
2026-04-23 18:38 33.19668 -12.50319 35056 ft 434 kts 221°
2026-04-23 18:38 33.14796 -12.54513 35056 ft 434 kts 221°
2026-04-23 18:39 33.09897 -12.58727 35055 ft 434 kts 221°
2026-04-23 18:39 33.04998 -12.62935 35051 ft 435 kts 221°
2026-04-23 18:40 33.00102 -12.67138 35054 ft 435 kts 221°
2026-04-23 18:40 32.95172 -12.71361 35049 ft 436 kts 221°
2026-04-23 18:41 32.90275 -12.75555 35049 ft 436 kts 221°
2026-04-23 18:41 32.85336 -12.79771 35046 ft 436 kts 221°
2026-04-23 18:42 32.80411 -12.83949 35064 ft 435 kts 221°
2026-04-23 18:42 32.75491 -12.88109 35066 ft 436 kts 221°
2026-04-23 18:43 32.70550 -12.92284 35066 ft 436 kts 221°
2026-04-23 18:43 32.65614 -12.96453 35063 ft 436 kts 222°
2026-04-23 18:44 32.60674 -13.00619 35066 ft 436 kts 222°
2026-04-23 18:44 32.55750 -13.04773 35075 ft 435 kts 222°
2026-04-23 18:45 32.50805 -13.08933 35079 ft 435 kts 223°
2026-04-23 18:45 32.45869 -13.13080 35073 ft 435 kts 223°
2026-04-23 18:46 32.40942 -13.17215 35071 ft 435 kts 223°
2026-04-23 18:46 32.36017 -13.21346 35070 ft 435 kts 223°
2026-04-23 18:47 32.31065 -13.25487 35072 ft 435 kts 223°
2026-04-23 18:47 32.26126 -13.29618 35071 ft 435 kts 223°
2026-04-23 18:48 32.21184 -13.33743 35074 ft 434 kts 223°
2026-04-23 18:48 32.18717 -13.35801 35199 ft 437 kts 223°
2026-04-23 18:48 32.16221 -13.37881 35485 ft 435 kts 223°
2026-04-23 18:48 32.13746 -13.39941 35806 ft 433 kts 223°
2026-04-23 18:49 32.11316 -13.41964 36146 ft 432 kts 223°
2026-04-23 18:49 32.08850 -13.44016 36476 ft 430 kts 223°
2026-04-23 18:49 32.06430 -13.46028 36730 ft 431 kts 223°
2026-04-23 18:49 32.03979 -13.48065 36991 ft 430 kts 223°
2026-04-23 18:50 32.02338 -13.49426 37064 ft 431 kts 223°
2026-04-23 18:50 31.96619 -13.54168 37073 ft 430 kts 223°
2026-04-23 18:51 31.91750 -13.58200 37076 ft 431 kts 223°
2026-04-23 18:51 31.86828 -13.62270 37072 ft 432 kts 223°
2026-04-23 18:52 31.81925 -13.66319 37076 ft 432 kts 223°
2026-04-23 18:52 31.77024 -13.70362 37072 ft 431 kts 223°
2026-04-23 18:53 31.72103 -13.74416 37076 ft 432 kts 223°
2026-04-23 18:53 31.67168 -13.78476 37074 ft 432 kts 223°
2026-04-23 18:54 31.62249 -13.82517 37076 ft 433 kts 223°
2026-04-23 18:54 31.57322 -13.86561 37071 ft 432 kts 223°
2026-04-23 18:55 31.52416 -13.90583 37073 ft 432 kts 223°
2026-04-23 18:55 31.47496 -13.94609 37078 ft 432 kts 223°
2026-04-23 18:56 31.43375 -13.97979 37076 ft 432 kts 223°
2026-04-23 18:56 31.37634 -14.02671 37075 ft 432 kts 223°
2026-04-23 18:57 31.32708 -14.06688 37075 ft 433 kts 223°
2026-04-23 18:57 31.27781 -14.10708 37079 ft 432 kts 223°
2026-04-23 18:58 31.22853 -14.14740 37071 ft 431 kts 223°
2026-04-23 18:58 31.17935 -14.18762 37076 ft 432 kts 224°
2026-04-23 18:59 31.13018 -14.22781 37076 ft 431 kts 224°
2026-04-23 18:59 31.08123 -14.26778 37073 ft 431 kts 224°
2026-04-23 19:00 31.03215 -14.30782 37074 ft 431 kts 224°
2026-04-23 19:00 30.98308 -14.34777 37072 ft 430 kts 224°
2026-04-23 19:01 30.93246 -14.38571 37072 ft 437 kts 219°
2026-04-23 19:01 30.87775 -14.41832 37074 ft 443 kts 213°
2026-04-23 19:02 30.82984 -14.44069 37077 ft 449 kts 209°
2026-04-23 19:02 30.76026 -14.46676 37073 ft 452 kts 207°
2026-04-23 19:03 30.70029 -14.48886 37077 ft 452 kts 207°
2026-04-23 19:03 30.64041 -14.51092 37080 ft 451 kts 207°
2026-04-23 19:04 30.58070 -14.53286 37077 ft 450 kts 207°
2026-04-23 19:04 30.52070 -14.55489 37079 ft 451 kts 207°
2026-04-23 19:05 30.46109 -14.57675 37078 ft 451 kts 207°
2026-04-23 19:05 30.40118 -14.59869 37080 ft 451 kts 207°
2026-04-23 19:06 30.34144 -14.62053 37079 ft 450 kts 207°
2026-04-23 19:06 30.28157 -14.64239 37083 ft 450 kts 207°
2026-04-23 19:07 30.22197 -14.66413 37088 ft 450 kts 206°
2026-04-23 19:07 30.16200 -14.68599 37081 ft 450 kts 206°
2026-04-23 19:08 30.10249 -14.70764 37089 ft 451 kts 206°
2026-04-23 19:08 30.04243 -14.72946 37088 ft 450 kts 206°
2026-04-23 19:09 29.98282 -14.75110 37089 ft 449 kts 206°
2026-04-23 19:09 29.92297 -14.77278 37086 ft 450 kts 206°
2026-04-23 19:10 29.86308 -14.79446 37086 ft 451 kts 206°
2026-04-23 19:10 29.80318 -14.81613 37081 ft 450 kts 206°
2026-04-23 19:11 29.74324 -14.83777 37089 ft 450 kts 206°
2026-04-23 19:11 29.68387 -14.85918 37083 ft 450 kts 206°
2026-04-23 19:12 29.63386 -14.87719 37086 ft 450 kts 206°
2026-04-23 19:12 29.56407 -14.90230 37086 ft 450 kts 206°
2026-04-23 19:13 29.50427 -14.92379 37090 ft 451 kts 206°
2026-04-23 19:13 29.44424 -14.94534 37085 ft 451 kts 206°
2026-04-23 19:14 29.38428 -14.96683 37079 ft 451 kts 206°
2026-04-23 19:14 29.32450 -14.98822 37090 ft 451 kts 206°
2026-04-23 19:15 29.26449 -15.00967 37091 ft 451 kts 206°
2026-04-23 19:15 29.20486 -15.03096 37087 ft 450 kts 206°
2026-04-23 19:16 29.14488 -15.05236 37091 ft 451 kts 206°
2026-04-23 19:16 29.08476 -15.07379 37085 ft 453 kts 206°
2026-04-23 19:17 28.99452 -15.10589 37087 ft 452 kts 206°
2026-04-23 19:17 28.93441 -15.12722 37091 ft 452 kts 205°
2026-04-23 19:18 28.87466 -15.14841 37063 ft 452 kts 206°
2026-04-23 19:18 28.81441 -15.16976 37074 ft 452 kts 206°
2026-04-23 19:19 28.72424 -15.20166 37076 ft 451 kts 205°
2026-04-23 19:20 28.63427 -15.23342 37140 ft 451 kts 205°
2026-04-23 19:20 28.57474 -15.25442 37084 ft 450 kts 205°
2026-04-23 19:21 28.48459 -15.28616 37072 ft 450 kts 205°
2026-04-23 19:22 28.42508 -15.30709 37076 ft 450 kts 205°
2026-04-23 19:22 28.33516 -15.33865 37065 ft 450 kts 205°
2026-04-23 19:23 28.27541 -15.35960 37073 ft 448 kts 205°
2026-04-23 19:24 28.18588 -15.39097 37070 ft 450 kts 205°
2026-04-23 19:24 28.09558 -15.42255 37066 ft 449 kts 205°
2026-04-23 19:25 27.97493 -15.46094 37078 ft 450 kts 203°
2026-04-23 19:26 27.88408 -15.48890 37077 ft 450 kts 203°
2026-04-23 19:27 27.73310 -15.53557 37067 ft 450 kts 203°
2026-04-23 19:28 27.61227 -15.57284 37064 ft 449 kts 203°
2026-04-23 19:29 27.52180 -15.60070 37060 ft 448 kts 203°
2026-04-23 19:30 27.43140 -15.62853 37061 ft 449 kts 203°
2026-04-23 19:31 27.34119 -15.65624 37067 ft 449 kts 202°
2026-04-23 19:31 27.28083 -15.67476 37057 ft 449 kts 202°
2026-04-23 19:32 27.22064 -15.69318 37069 ft 449 kts 202°
2026-04-23 19:32 27.16021 -15.71164 37053 ft 449 kts 202°
2026-04-23 19:33 27.09983 -15.73008 37057 ft 448 kts 202°
2026-04-23 19:33 27.00945 -15.75765 37058 ft 447 kts 202°
2026-04-23 19:34 26.94940 -15.77594 37063 ft 448 kts 202°
2026-04-23 19:35 26.85925 -15.80335 37061 ft 447 kts 202°
2026-04-23 19:35 26.79932 -15.82153 37063 ft 447 kts 202°
2026-04-23 19:36 26.73917 -15.83979 37061 ft 445 kts 202°
2026-04-23 19:36 26.67919 -15.85796 37060 ft 446 kts 202°
2026-04-23 19:37 26.61923 -15.87611 37057 ft 446 kts 202°
2026-04-23 19:37 26.55936 -15.89421 37062 ft 445 kts 202°
2026-04-23 19:38 26.49962 -15.91223 37057 ft 445 kts 202°
2026-04-23 19:38 26.43983 -15.93022 37056 ft 445 kts 202°
2026-04-23 19:39 26.37979 -15.94830 37054 ft 445 kts 202°
2026-04-23 19:39 26.32015 -15.96624 37056 ft 445 kts 202°
2026-04-23 19:40 26.26049 -15.98419 37060 ft 445 kts 202°
2026-04-23 19:40 26.20048 -16.00221 37051 ft 444 kts 202°
2026-04-23 19:41 26.14088 -16.02010 37051 ft 445 kts 202°
2026-04-23 19:41 26.08105 -16.03801 37049 ft 443 kts 202°
2026-04-23 19:42 26.02143 -16.05584 37049 ft 444 kts 202°
2026-04-23 19:42 25.96180 -16.07366 37045 ft 443 kts 202°
2026-04-23 19:43 25.90217 -16.09147 37048 ft 443 kts 202°
2026-04-23 19:43 25.84242 -16.10930 37048 ft 443 kts 202°
2026-04-23 19:44 25.78299 -16.12701 37049 ft 443 kts 202°
2026-04-23 19:44 25.72309 -16.14487 37046 ft 443 kts 202°
2026-04-23 19:45 25.66355 -16.16258 37057 ft 443 kts 202°
2026-04-23 19:45 25.60418 -16.18023 37051 ft 443 kts 202°
2026-04-23 19:46 25.54467 -16.19792 37047 ft 442 kts 202°
2026-04-23 19:46 25.48531 -16.21552 37051 ft 443 kts 202°
2026-04-23 19:47 25.43544 -16.23031 37040 ft 443 kts 202°
2026-04-23 19:47 25.36581 -16.25093 37047 ft 443 kts 202°
2026-04-23 19:48 25.30650 -16.26847 37045 ft 443 kts 202°
2026-04-23 19:48 25.24705 -16.28606 37049 ft 442 kts 202°
2026-04-23 19:49 25.18714 -16.30377 37050 ft 443 kts 202°
2026-04-23 19:49 25.12765 -16.32134 37050 ft 442 kts 202°
2026-04-23 19:50 25.06833 -16.33905 37043 ft 441 kts 204°
2026-04-23 19:50 25.01057 -16.36118 37047 ft 435 kts 209°
2026-04-23 19:51 24.95606 -16.38886 37050 ft 430 kts 214°
2026-04-23 19:51 24.90439 -16.42137 37050 ft 428 kts 217°
2026-04-23 19:52 24.86139 -16.44940 37054 ft 428 kts 217°
2026-04-23 19:52 24.80166 -16.48829 37051 ft 428 kts 217°
2026-04-23 19:53 24.75071 -16.52148 37051 ft 427 kts 218°
2026-04-23 19:53 24.69964 -16.55474 37049 ft 427 kts 218°
2026-04-23 19:54 24.64856 -16.58798 37050 ft 427 kts 217°
2026-04-23 19:54 24.59722 -16.62137 37050 ft 426 kts 217°
2026-04-23 19:55 24.54620 -16.65451 37053 ft 426 kts 217°
2026-04-23 19:55 24.49507 -16.68768 37055 ft 426 kts 217°
2026-04-23 19:56 24.44415 -16.72069 37057 ft 427 kts 217°
2026-04-23 19:56 24.39297 -16.75380 37054 ft 427 kts 217°
2026-04-23 19:57 24.34172 -16.78697 37054 ft 428 kts 217°
2026-04-23 19:57 24.29871 -16.81479 37056 ft 428 kts 217°
2026-04-23 19:58 24.23905 -16.85332 37051 ft 427 kts 217°
2026-04-23 19:58 24.18777 -16.88639 37056 ft 427 kts 217°
2026-04-23 19:59 24.13672 -16.91932 37051 ft 427 kts 217°
2026-04-23 19:59 24.08525 -16.95244 37053 ft 427 kts 217°
2026-04-23 20:00 24.03419 -16.98529 37047 ft 427 kts 217°
2026-04-23 20:00 23.98306 -17.01816 37051 ft 428 kts 217°
2026-04-23 20:01 23.93180 -17.05107 37051 ft 427 kts 217°
2026-04-23 20:01 23.88015 -17.08421 37052 ft 428 kts 217°
2026-04-23 20:02 23.82908 -17.11695 37052 ft 427 kts 217°
2026-04-23 20:02 23.77771 -17.14983 37056 ft 427 kts 217°
2026-04-23 20:03 23.72636 -17.18269 37054 ft 427 kts 217°
2026-04-23 20:03 23.67525 -17.21537 37051 ft 427 kts 217°
2026-04-23 20:04 23.62396 -17.24810 37048 ft 427 kts 218°
2026-04-23 20:04 23.57269 -17.28081 37048 ft 427 kts 218°
2026-04-23 20:05 23.52978 -17.30817 37049 ft 426 kts 218°
2026-04-23 20:05 23.47019 -17.34614 37126 ft 428 kts 218°
2026-04-23 20:05 23.44435 -17.36257 37384 ft 427 kts 218°
2026-04-23 20:06 23.41895 -17.37871 37701 ft 425 kts 218°
2026-04-23 20:06 23.39329 -17.39503 37984 ft 424 kts 218°
2026-04-23 20:06 23.36770 -17.41129 38262 ft 423 kts 218°
2026-04-23 20:06 23.34249 -17.42729 38551 ft 422 kts 218°
2026-04-23 20:07 23.31719 -17.44337 38835 ft 421 kts 218°
2026-04-23 20:07 23.29184 -17.45947 39034 ft 422 kts 218°
2026-04-23 20:07 23.26612 -17.47580 39037 ft 422 kts 218°
2026-04-23 20:08 23.21540 -17.50795 39048 ft 423 kts 218°
2026-04-23 20:08 23.16474 -17.54004 39051 ft 422 kts 218°
2026-04-23 20:09 23.11363 -17.57239 39047 ft 423 kts 218°
2026-04-23 20:09 23.06274 -17.60457 39048 ft 422 kts 218°
2026-04-23 20:10 23.02042 -17.63129 39041 ft 422 kts 218°
2026-04-23 20:10 22.96136 -17.66859 39053 ft 422 kts 218°
2026-04-23 20:11 22.91046 -17.70069 39061 ft 421 kts 218°
2026-04-23 20:11 22.85981 -17.73262 39061 ft 422 kts 218°
2026-04-23 20:12 22.80905 -17.76458 39058 ft 422 kts 218°
2026-04-23 20:12 22.75810 -17.79661 39061 ft 422 kts 218°
2026-04-23 20:13 22.70721 -17.82859 39059 ft 423 kts 218°
2026-04-23 20:13 22.65611 -17.86069 39061 ft 422 kts 218°
2026-04-23 20:14 22.60523 -17.89259 39053 ft 423 kts 218°
2026-04-23 20:14 22.55446 -17.92442 39052 ft 422 kts 218°
2026-04-23 20:15 22.50371 -17.95619 39052 ft 422 kts 218°
2026-04-23 20:15 22.45270 -17.98812 39056 ft 422 kts 218°
2026-04-23 20:16 22.40175 -18.01997 39052 ft 421 kts 218°
2026-04-23 20:16 22.35097 -18.05168 39053 ft 422 kts 218°
2026-04-23 20:17 22.30029 -18.08332 39050 ft 421 kts 218°
2026-04-23 20:17 22.24936 -18.11506 39049 ft 422 kts 218°
2026-04-23 20:18 22.19861 -18.14669 39048 ft 421 kts 218°
2026-04-23 20:18 22.14770 -18.17839 39045 ft 422 kts 218°
2026-04-23 20:19 22.09710 -18.20987 39042 ft 421 kts 218°
2026-04-23 20:19 22.04621 -18.24150 39044 ft 421 kts 218°
2026-04-23 20:20 21.99532 -18.27312 39047 ft 421 kts 218°
2026-04-23 20:20 21.94468 -18.30454 39047 ft 421 kts 219°
2026-04-23 20:21 21.89385 -18.33605 39054 ft 422 kts 219°
2026-04-23 20:21 21.84293 -18.36759 39055 ft 421 kts 219°
2026-04-23 20:22 21.79216 -18.39904 39054 ft 421 kts 218°
2026-04-23 20:22 21.74143 -18.43040 39055 ft 420 kts 218°
2026-04-23 20:23 21.69060 -18.46183 39054 ft 421 kts 218°
2026-04-23 20:23 21.63975 -18.49322 39054 ft 420 kts 219°
2026-04-23 20:24 21.58885 -18.52464 39054 ft 421 kts 218°
2026-04-23 20:24 21.53795 -18.55603 39053 ft 422 kts 218°
2026-04-23 20:25 21.48699 -18.58743 39052 ft 420 kts 218°
2026-04-23 20:25 21.43625 -18.61868 39054 ft 421 kts 218°
2026-04-23 20:26 21.38544 -18.64995 39050 ft 421 kts 218°
2026-04-23 20:26 21.33453 -18.68124 39055 ft 421 kts 218°
2026-04-23 20:27 21.28361 -18.71240 39055 ft 422 kts 218°
2026-04-23 20:27 21.23245 -18.74373 39052 ft 422 kts 217°
2026-04-23 20:28 21.18135 -18.77500 39051 ft 424 kts 218°
2026-04-23 20:28 21.13003 -18.80643 39056 ft 424 kts 218°
2026-04-23 20:29 21.07874 -18.83777 39055 ft 423 kts 217°
2026-04-23 20:29 21.02779 -18.86892 39056 ft 424 kts 218°
2026-04-23 20:30 20.97638 -18.90031 39058 ft 424 kts 218°
2026-04-23 20:30 20.89964 -18.94712 39051 ft 424 kts 218°
2026-04-23 20:31 20.84832 -18.97843 39046 ft 425 kts 217°
2026-04-23 20:31 20.79690 -19.00974 39048 ft 424 kts 218°
2026-04-23 20:32 20.74543 -19.04107 39048 ft 423 kts 217°
2026-04-23 20:32 20.69425 -19.07218 39044 ft 422 kts 217°
2026-04-23 20:33 20.64333 -19.10313 39043 ft 423 kts 217°
2026-04-23 20:33 20.59206 -19.13424 39043 ft 422 kts 217°
2026-04-23 20:34 20.54098 -19.16523 39045 ft 422 kts 217°
2026-04-23 20:34 20.48981 -19.19626 39043 ft 423 kts 217°
2026-04-23 20:35 20.43864 -19.22725 39042 ft 423 kts 217°
2026-04-23 20:35 20.38745 -19.25825 39041 ft 423 kts 217°
2026-04-23 20:36 20.33635 -19.28914 39042 ft 422 kts 217°
2026-04-23 20:36 20.28514 -19.32010 39041 ft 423 kts 217°
2026-04-23 20:37 20.23394 -19.35107 39041 ft 422 kts 217°
2026-04-23 20:37 20.18280 -19.38195 39041 ft 421 kts 217°
2026-04-23 20:38 20.13177 -19.41274 39042 ft 422 kts 217°
2026-04-23 20:38 20.08060 -19.44359 39042 ft 422 kts 217°
2026-04-23 20:39 20.02942 -19.47441 39041 ft 422 kts 217°
2026-04-23 20:39 19.97825 -19.50520 39040 ft 423 kts 217°
2026-04-23 20:40 19.92716 -19.53592 39044 ft 424 kts 217°
2026-04-23 20:40 19.87554 -19.56694 39040 ft 424 kts 216°
2026-04-23 20:41 19.82412 -19.59784 39034 ft 423 kts 217°
2026-04-23 20:41 19.77310 -19.62852 39043 ft 423 kts 217°
2026-04-23 20:42 19.72152 -19.65951 39042 ft 424 kts 216°
2026-04-23 20:42 19.67051 -19.69022 39040 ft 422 kts 217°
2026-04-23 20:43 19.62166 -19.72410 39037 ft 417 kts 222°
2026-04-23 20:43 19.57643 -19.76235 39039 ft 414 kts 227°
2026-04-23 20:44 19.53524 -19.80442 39038 ft 411 kts 231°
2026-04-23 20:44 19.49638 -19.84898 39043 ft 411 kts 232°
2026-04-23 20:45 19.45777 -19.89336 39039 ft 410 kts 232°
2026-04-23 20:45 19.41886 -19.93809 39041 ft 412 kts 232°
2026-04-23 20:46 19.38005 -19.98270 39043 ft 413 kts 232°
2026-04-23 20:46 19.34139 -20.02712 39039 ft 412 kts 232°
2026-04-23 20:47 19.30229 -20.07197 39036 ft 413 kts 232°
2026-04-23 20:47 19.26350 -20.11642 39040 ft 414 kts 232°
2026-04-23 20:48 19.22427 -20.16138 39032 ft 413 kts 232°
2026-04-23 20:48 19.18512 -20.20618 39030 ft 415 kts 232°
2026-04-23 20:49 19.14602 -20.25098 39030 ft 415 kts 232°
2026-04-23 20:49 19.10691 -20.29571 39033 ft 415 kts 232°
2026-04-23 20:50 19.06769 -20.34057 39032 ft 415 kts 232°
2026-04-23 20:50 19.02854 -20.38527 39029 ft 416 kts 232°
2026-04-23 20:51 18.98907 -20.43035 39027 ft 416 kts 232°
2026-04-23 20:51 18.94982 -20.47507 39025 ft 417 kts 232°
2026-04-23 20:52 18.91035 -20.52003 39028 ft 417 kts 232°
2026-04-23 20:52 18.87095 -20.56488 39025 ft 417 kts 232°
2026-04-23 20:53 18.83137 -20.60991 39027 ft 418 kts 232°
2026-04-23 20:53 18.79170 -20.65501 39028 ft 418 kts 232°
2026-04-23 20:54 18.75222 -20.69990 39029 ft 419 kts 232°
2026-04-23 20:54 18.71257 -20.74492 39023 ft 419 kts 231°
2026-04-23 20:55 18.67280 -20.79004 39022 ft 419 kts 231°
2026-04-23 20:55 18.63300 -20.83518 39024 ft 420 kts 231°
2026-04-23 20:56 18.59344 -20.88001 39020 ft 420 kts 231°
2026-04-23 20:56 18.55354 -20.92520 39020 ft 420 kts 231°
2026-04-23 20:57 18.51387 -20.97009 39020 ft 419 kts 231°
2026-04-23 20:57 18.47413 -21.01503 39023 ft 421 kts 231°
2026-04-23 20:58 18.43408 -21.06027 39021 ft 421 kts 231°
2026-04-23 20:58 18.39414 -21.10537 39020 ft 422 kts 231°
2026-04-23 20:59 18.35413 -21.15053 39019 ft 423 kts 231°
2026-04-23 20:59 18.31379 -21.19599 39020 ft 424 kts 231°
2026-04-23 21:00 18.27353 -21.24138 39021 ft 424 kts 231°
2026-04-23 21:00 18.23337 -21.28656 39022 ft 425 kts 231°
2026-04-23 21:01 18.19288 -21.33212 39020 ft 425 kts 231°
2026-04-23 21:01 18.15266 -21.37732 39021 ft 426 kts 231°
2026-04-23 21:02 18.11223 -21.42272 38712 ft 422 kts 231°
2026-04-23 21:02 18.09215 -21.44526 37365 ft 428 kts 231°
2026-04-23 21:02 18.07170 -21.46821 35773 ft 439 kts 231°
2026-04-23 21:03 18.05083 -21.49163 34334 ft 445 kts 232°
2026-04-23 21:03 18.02982 -21.51516 33085 ft 448 kts 232°
2026-04-23 21:03 18.00869 -21.53879 32463 ft 437 kts 232°
2026-04-23 21:03 17.98802 -21.56191 31971 ft 430 kts 232°
2026-04-23 21:04 17.96763 -21.58477 31602 ft 426 kts 233°
2026-04-23 21:04 17.94742 -21.60744 31234 ft 423 kts 233°
2026-04-23 21:04 17.92758 -21.62967 30797 ft 420 kts 233°
2026-04-23 21:04 17.90768 -21.65197 30361 ft 417 kts 232°
2026-04-23 21:05 17.88786 -21.67415 29965 ft 413 kts 232°
2026-04-23 21:05 17.86819 -21.69617 29574 ft 409 kts 232°
2026-04-23 21:05 17.84898 -21.71766 29227 ft 405 kts 232°
2026-04-23 21:05 17.82961 -21.73929 28892 ft 400 kts 232°
2026-04-23 21:06 17.81087 -21.76023 28577 ft 395 kts 232°
2026-04-23 21:06 17.79202 -21.78129 28282 ft 390 kts 232°
2026-04-23 21:06 17.77379 -21.80169 27980 ft 386 kts 232°
2026-04-23 21:06 17.75544 -21.82220 27658 ft 382 kts 232°
2026-04-23 21:07 17.73715 -21.84263 27336 ft 379 kts 232°
2026-04-23 21:07 17.71923 -21.86267 26999 ft 377 kts 232°
2026-04-23 21:07 17.70137 -21.88261 26658 ft 375 kts 232°
2026-04-23 21:07 17.68351 -21.90253 26263 ft 374 kts 232°
2026-04-23 21:08 17.66569 -21.92238 25900 ft 372 kts 232°
2026-04-23 21:08 17.64817 -21.94245 25517 ft 370 kts 234°
2026-04-23 21:08 17.63014 -21.96190 24948 ft 379 kts 225°
2026-04-23 21:08 17.60941 -21.97896 24150 ft 391 kts 222°
2026-04-23 21:09 17.58719 -21.99636 23294 ft 401 kts 221°
2026-04-23 21:09 17.56473 -22.01402 22341 ft 408 kts 221°
2026-04-23 21:09 17.54229 -22.03192 21538 ft 406 kts 221°
2026-04-23 21:09 17.52017 -22.04972 20873 ft 402 kts 221°
2026-04-23 21:10 17.49809 -22.06761 20188 ft 398 kts 221°
2026-04-23 21:10 17.47631 -22.08536 19514 ft 393 kts 221°
2026-04-23 21:10 17.45512 -22.10268 18950 ft 386 kts 221°
2026-04-23 21:10 17.43417 -22.11982 18559 ft 375 kts 221°
2026-04-23 21:11 17.41375 -22.13656 18194 ft 364 kts 221°
2026-04-23 21:11 17.39401 -22.15275 17832 ft 355 kts 221°
2026-04-23 21:11 17.37485 -22.16847 17506 ft 352 kts 221°
2026-04-23 21:11 17.35549 -22.18437 17153 ft 351 kts 221°
2026-04-23 21:12 17.33620 -22.20021 16814 ft 350 kts 221°
2026-04-23 21:12 17.31714 -22.21585 16461 ft 349 kts 221°
2026-04-23 21:12 17.29811 -22.23147 16124 ft 347 kts 221°
2026-04-23 21:12 17.27927 -22.24690 15789 ft 345 kts 221°
2026-04-23 21:13 17.26020 -22.26253 15432 ft 344 kts 220°
2026-04-23 21:13 17.24149 -22.27786 15073 ft 343 kts 220°
2026-04-23 21:13 17.22253 -22.29339 14694 ft 343 kts 220°
2026-04-23 21:13 17.20388 -22.30867 14335 ft 342 kts 220°
2026-04-23 21:14 17.18527 -22.32390 13981 ft 340 kts 220°
2026-04-23 21:14 17.16647 -22.33929 13625 ft 339 kts 221°
2026-04-23 21:14 17.14797 -22.35443 13264 ft 338 kts 220°
2026-04-23 21:14 17.12950 -22.36954 12914 ft 336 kts 220°
2026-04-23 21:15 17.11109 -22.38460 12555 ft 334 kts 220°
2026-04-23 21:15 17.09285 -22.39952 12213 ft 333 kts 220°
2026-04-23 21:15 17.07464 -22.41441 11865 ft 331 kts 220°
2026-04-23 21:15 17.05670 -22.42907 11522 ft 330 kts 220°
2026-04-23 21:16 17.03849 -22.44395 11175 ft 328 kts 220°
2026-04-23 21:16 17.02057 -22.45859 10827 ft 327 kts 220°
2026-04-23 21:16 17.00280 -22.47309 10501 ft 325 kts 220°
2026-04-23 21:16 16.98496 -22.48765 10205 ft 321 kts 220°
2026-04-23 21:17 16.96772 -22.50171 10144 ft 310 kts 220°
2026-04-23 21:17 16.95092 -22.51542 10084 ft 294 kts 220°
2026-04-23 21:17 16.93529 -22.52813 10061 ft 277 kts 220°
2026-04-23 21:17 16.92028 -22.54038 10021 ft 269 kts 220°
2026-04-23 21:18 16.90544 -22.55252 9733 ft 269 kts 220°
2026-04-23 21:18 16.89085 -22.56443 9448 ft 267 kts 220°
2026-04-23 21:18 16.87626 -22.57636 9190 ft 268 kts 220°
2026-04-23 21:18 16.86138 -22.58849 8909 ft 267 kts 220°
2026-04-23 21:19 16.84676 -22.60042 8640 ft 267 kts 220°
2026-04-23 21:19 16.83211 -22.61238 8370 ft 267 kts 220°
2026-04-23 21:19 16.81752 -22.62426 8095 ft 267 kts 220°
2026-04-23 21:19 16.80278 -22.63627 7823 ft 267 kts 220°
2026-04-23 21:20 16.78823 -22.64811 7558 ft 266 kts 220°
2026-04-23 21:20 16.77363 -22.66000 7295 ft 266 kts 220°
2026-04-23 21:20 16.75905 -22.67187 7030 ft 266 kts 220°
2026-04-23 21:20 16.74293 -22.68220 6754 ft 278 kts 200°
2026-04-23 21:21 16.72362 -22.68518 6507 ft 281 kts 184°
2026-04-23 21:21 16.70412 -22.68565 6235 ft 282 kts 181°
2026-04-23 21:21 16.68425 -22.68436 6021 ft 280 kts 174°
2026-04-23 21:21 16.66490 -22.68146 6003 ft 282 kts 172°
2026-04-23 21:22 16.64543 -22.67829 6001 ft 283 kts 172°
2026-04-23 21:22 16.62595 -22.67505 6001 ft 283 kts 172°
2026-04-23 21:22 16.60635 -22.67176 5999 ft 283 kts 172°
2026-04-23 21:22 16.58682 -22.66846 5999 ft 283 kts 172°
2026-04-23 21:23 16.56744 -22.66518 5997 ft 283 kts 172°
2026-04-23 21:23 16.54772 -22.66185 5997 ft 283 kts 172°
2026-04-23 21:23 16.52815 -22.65865 5995 ft 283 kts 175°
2026-04-23 21:23 16.50898 -22.66069 5972 ft 279 kts 206°
2026-04-23 21:24 16.49423 -22.67289 5960 ft 268 kts 237°
2026-04-23 21:24 16.48702 -22.69054 5730 ft 260 kts 262°
2026-04-23 21:24 16.48729 -22.70906 5441 ft 257 kts 284°
2026-04-23 21:24 16.49207 -22.72698 5117 ft 259 kts 287°
2026-04-23 21:25 16.49706 -22.74506 4921 ft 257 kts 287°
2026-04-23 21:25 16.50183 -22.76300 4645 ft 258 kts 287°
2026-04-23 21:25 16.50642 -22.78090 4432 ft 257 kts 287°
2026-04-23 21:25 16.51090 -22.79881 4213 ft 256 kts 286°
2026-04-23 21:26 16.51539 -22.81690 3964 ft 256 kts 286°
2026-04-23 21:26 16.51975 -22.83474 3730 ft 256 kts 287°
2026-04-23 21:26 16.52413 -22.85280 3483 ft 256 kts 287°
2026-04-23 21:26 16.52851 -22.87079 3266 ft 254 kts 287°
2026-04-23 21:27 16.53278 -22.88840 3035 ft 250 kts 287°
2026-04-23 21:27 16.53700 -22.90578 2936 ft 238 kts 287°
2026-04-23 21:27 16.54094 -22.92200 2891 ft 226 kts 288°
2026-04-23 21:27 16.54535 -22.93739 2870 ft 218 kts 303°
2026-04-23 21:28 16.55585 -22.94733 2797 ft 199 kts 346°
2026-04-23 21:28 16.56940 -22.94927 2824 ft 195 kts
2026-04-23 21:28 16.58272 -22.94877 2755 ft 185 kts
2026-04-23 21:28 16.59525 -22.94828 2690 ft 175 kts
2026-04-23 21:29 16.60733 -22.94811 2468 ft 170 kts
2026-04-23 21:29 16.61908 -22.94815 2226 ft 166 kts
2026-04-23 21:29 16.63059 -22.94826 2012 ft 160 kts
2026-04-23 21:29 16.64147 -22.94836 1797 ft 155 kts
2026-04-23 21:30 16.65212 -22.94845 1593 ft 149 kts
2026-04-23 21:30 16.66225 -22.94853 1398 ft 142 kts
2026-04-23 21:30 16.67205 -22.94861 1220 ft 137 kts
2026-04-23 21:30 16.68158 -22.94867 1041 ft 138 kts
2026-04-23 21:31 16.69124 -22.94874 854 ft 137 kts
2026-04-23 21:31 16.70089 -22.94881 667 ft 137 kts
2026-04-23 21:31 16.71039 -22.94888 488 ft 137 kts
2026-04-23 21:31 16.71997 -22.94888 297 ft 136 kts
2026-04-23 21:32 16.72926 -22.94890 196 ft 126 kts
2026-04-23 21:32 16.73659 -22.94895 198 ft 80 kts 360°
2026-04-23 21:32 16.74110 -22.94899 194 ft 40 kts 359°
2026-04-23 21:32 16.74254 -22.94818 191 ft 22 kts 59°
2026-04-23 21:33 16.74295 -22.94715 189 ft 6 kts 122°
2026-04-23 21:33 16.74238 -22.94699 189 ft 11 kts 179°
2026-04-23 21:33 16.74136 -22.94699 189 ft 17 kts 180°
2026-04-23 21:33 16.74003 -22.94699 192 ft 20 kts 179°
2026-04-23 21:34 16.73841 -22.94696 192 ft 24 kts 179°
2026-04-23 21:34 16.73684 -22.94695 195 ft 17 kts 180°
2026-04-23 21:34 16.73619 -22.94654 194 ft 10 kts 103°
2026-04-23 21:34 16.73579 -22.94600 193 ft 10 kts 140°
2026-04-23 21:35 16.73560 -22.94542 192 ft 6 kts 91°
2026-04-23 21:35 16.73560 -22.94511 192 ft 1 kts 90°
2026-04-23 21:35 16.73560 -22.94505 191 ft 0 kts 90°